Weather History for KANJ - March, 2013

Change the Weather History Date:

Saturday, March 9, 2013

  Actual Average Record
Temperature  
Mean Temperature 29 °F 24 °F  
Max Temperature 37 °F 32 °F 55 °F (2010)
Min Temperature 20 °F 15 °F -16 °F (1916)
Degree Days  
Heating Degree Days 36 42  
Month to date heating degree days 379 386  
Since 1 July heating degree days 6111 6512  
Cooling Degree Days 0 0  
Month to date cooling degree days 0 0  
Year to date cooling degree days 0 0  
Moisture  
Dew Point 24 °F    
Average Humidity 78    
Maximum Humidity 92    
Minimum Humidity 64    
Precipitation  
Precipitation 0.15 in 0.06 in 1.16 in (1942)
Month to date precipitation 0.20 0.50  
Year to date precipitation 6.29 4.03  
Snow  
Snow 1.20 in 0.40 in 8.80 in (1942)
Month to date snowfall 2.4 4.7  
Since 1 July snowfall 123.2 104.9  
Snow Depth 24.00 in    
Sea Level Pressure  
Sea Level Pressure 30.21 in    
Wind  
Wind Speed 7 mph (ESE)    
Max Wind Speed 21 mph    
Max Gust Speed 30 mph    
Visibility 7 miles    
Events Fog , Snow    
T = Trace of Precipitation, MM = Missing Value Source: NWS Daily Summary

Daily Weather History Graph

Daily Weather History Graph

Search for Another Location

Airport or City:

Trip Planner

Search our weather history database for the weather conditions in past years. The results will help you decide how hot, cold, wet, or windy it might be!

Date:

Astronomy

Mar. 09, 2013 Rise Set
Actual Time 7:01 AM EST 6:35 PM EST
Civil Twilight 6:31 AM EST 7:05 PM EST
Nautical Twilight 5:56 AM EST 7:40 PM EST
Astronomical Twilight 5:21 AM EST 8:15 PM EST
Moon 5:30 AM EST (3/9) 4:31 PM EST (3/9)
Length of Visible Light 12h 34m
Length of Day
11h 33m
Waning Crescent, 5% of the Moon is Illuminated
Mar 9
Waning Crescent
Mar 11
New
Mar 19
First Quarter
Mar 27
Full
Apr 3
Last Quarter

Hourly Weather History & Observations

Time (EST) Temp. Windchill Dew Point Humidity Pressure Visibility Wind Dir Wind Speed Gust Speed Precip Events Conditions
12:55 AM 25.0 °F 20.7 °F 19.9 °F 81% 30.35 in 10.0 mi SE 3.5 mph - N/A   Clear
1:55 AM 25.0 °F 20.7 °F 19.9 °F 81% 30.35 in 10.0 mi SE 3.5 mph - N/A   Clear
2:55 AM 25.0 °F 20.7 °F 19.9 °F 81% 30.32 in 10.0 mi ESE 3.5 mph - N/A   Clear
3:55 AM 24.1 °F - 19.0 °F 81% 30.32 in 10.0 mi Calm Calm - N/A   Clear
4:55 AM 23.0 °F 18.4 °F 19.0 °F 85% 30.32 in 10.0 mi ESE 3.5 mph - N/A   Clear
5:55 AM 21.9 °F - 19.0 °F 89% 30.32 in 9.0 mi Calm Calm - N/A   Clear
6:20 AM 21.0 °F 14.6 °F 18.0 °F 88% 30.29 in 8.0 mi ESE 4.6 mph - N/A   Scattered Clouds
6:28 AM 21.0 °F 16.2 °F 18.0 °F 88% 30.29 in 6.0 mi SE 3.5 mph - N/A   Mostly Cloudy
6:34 AM 19.9 °F 14.9 °F 18.0 °F 92% 30.29 in 1.8 mi ESE 3.5 mph - N/A   Mostly Cloudy
6:44 AM 21.0 °F 16.2 °F 18.0 °F 88% 30.29 in 0.5 mi SE 3.5 mph - N/A Fog Light Freezing Fog
6:55 AM 19.9 °F 14.9 °F 18.0 °F 92% 30.32 in 0.2 mi SE 3.5 mph - N/A Fog Light Freezing Fog
7:55 AM 21.0 °F - 19.0 °F 92% 30.32 in 0.2 mi Calm Calm - N/A Fog Light Freezing Fog
8:18 AM 23.0 °F 18.4 °F 21.0 °F 92% 30.28 in 2.0 mi ESE 3.5 mph - N/A   Overcast
8:27 AM 24.1 °F 18.2 °F 21.9 °F 91% 30.28 in 5.0 mi East 4.6 mph - N/A   Mostly Cloudy
8:33 AM 24.1 °F 18.2 °F 21.9 °F 91% 30.28 in 2.5 mi East 4.6 mph - N/A   Scattered Clouds
8:48 AM 25.0 °F 20.7 °F 23.0 °F 92% 30.27 in 6.0 mi East 3.5 mph - N/A   Partly Cloudy
8:55 AM 26.1 °F 20.5 °F 23.0 °F 88% 30.30 in 7.0 mi East 4.6 mph - N/A   Partly Cloudy
9:55 AM 28.0 °F 21.7 °F 25.0 °F 88% 30.29 in 10.0 mi ESE 5.8 mph - N/A   Clear
10:55 AM 32.0 °F 24.8 °F 25.0 °F 75% 30.28 in 10.0 mi ESE 8.1 mph - N/A   Clear
11:55 AM 33.1 °F 25.5 °F 25.0 °F 72% 30.26 in 10.0 mi East 9.2 mph - N/A   Clear
12:55 PM 34.0 °F 27.2 °F 25.0 °F 70% 30.25 in 10.0 mi ESE 8.1 mph - N/A   Partly Cloudy
1:55 PM 36.0 °F 29.6 °F 26.1 °F 67% 30.21 in 10.0 mi ESE 8.1 mph - N/A   Mostly Cloudy
2:55 PM 37.0 °F 32.4 °F 26.1 °F 65% 30.17 in 10.0 mi ESE 5.8 mph - N/A   Mostly Cloudy
3:55 PM 37.0 °F 31.0 °F 26.1 °F 65% 30.16 in 10.0 mi ESE 8.1 mph - N/A   Overcast
4:55 PM 35.1 °F 26.4 °F 28.0 °F 76% 30.13 in 10.0 mi East 12.7 mph 19.6 mph N/A   Overcast
5:55 PM 34.0 °F 26.0 °F 28.0 °F 79% 30.09 in 10.0 mi ESE 10.4 mph 21.9 mph N/A   Overcast
6:55 PM 34.0 °F 24.2 °F 28.0 °F 79% 30.09 in 10.0 mi ESE 15.0 mph 24.2 mph N/A   Overcast
7:55 PM 33.1 °F 23.9 °F 28.0 °F 82% 30.08 in 10.0 mi ESE 12.7 mph 20.7 mph N/A   Overcast
8:21 PM 33.1 °F 25.5 °F 28.0 °F 82% 30.05 in 10.0 mi ESE 9.2 mph 19.6 mph N/A   Overcast
8:55 PM 33.1 °F 24.4 °F 28.0 °F 82% 30.06 in 10.0 mi ESE 11.5 mph 19.6 mph N/A   Overcast
9:55 PM 33.1 °F 24.9 °F 28.9 °F 85% 30.04 in 10.0 mi ESE 10.4 mph - N/A   Overcast
10:39 PM 34.0 °F 23.8 °F 30.0 °F 85% 29.99 in 1.8 mi SE 16.1 mph 27.6 mph 0.00 in Snow Light Snow
10:55 PM 33.1 °F 23.0 °F 30.0 °F 89% 30.01 in 0.8 mi SE 15.0 mph 24.2 mph 0.01 in Snow Light Snow
11:18 PM 33.1 °F 23.9 °F 30.9 °F 92% 30.00 in 0.8 mi SSE 12.7 mph - 0.08 in Snow Light Snow
11:55 PM 33.1 °F 23.9 °F 30.0 °F 89% 29.99 in 1.0 mi SE 12.7 mph 23.0 mph 0.14 in Snow Light Snow